Location: Peebles
(55.6412°N, 3.1714°W)
Time: 12:04:35
(UTC+00:00)

CUTE-I - Pass Details

Date: 12 December 2023
Orbit: 807 x 823 km, 98.7° (Epoch: 24 February)

Event Time Altitude Azimuth Distance (km) Brightness Sun altitude
Rises 19:08:25 0° 217° (SW) 3,327 ? -27.6°
Reaches altitude 10° 19:11:44 10° 239° (WSW) 2,404 ? -28.0°
Maximum altitude 19:14:53 16° 276° (W) 2,035 ? -28.5°
Drops below altitude 10° 19:18:04 10° 312° (NW) 2,421 ? -28.9°
Sets 19:21:27 0° 335° (NNW) 3,363 ? -29.4°
